La Porte, IN

9:14 AM CDT on September 20, 2017 (GMT -0500)
La Porte Municipal

Weather History for KPPO - January, 2013

Change the Weather History Date:

Monday, January 28, 2013

  Actual Average (KSBN) Record (KSBN)
Temperature  
Mean Temperature 40 °F -  
Max Temperature 47 °F 31 °F 58 °F (2002)
Min Temperature 33 °F 16 °F -16 °F (1963)
Degree Days  
Heating Degree Days 25    
Moisture  
Dew Point 41 °F    
Average Humidity 100    
Maximum Humidity 100    
Minimum Humidity 98    
Precipitation  
Precipitation 0.01 in - - ()
Sea Level Pressure  
Sea Level Pressure 29.93 in    
Wind  
Wind Speed 8 mph (SSW)    
Max Wind Speed 16 mph    
Max Gust Speed 23 mph    
Visibility 1 miles    
Events Fog , Rain    
Averages and records for this station are not official NWS values.
T = Trace of Precipitation, MM = Missing Value Source: NWS Daily Summary

Daily Weather History Graph

Daily Weather History Graph

Search for Another Location

Airport or City:

Trip Planner

Search our weather history database for the weather conditions in past years. The results will help you decide how hot, cold, wet, or windy it might be!

Date:

Astronomy

Jan. 28, 2013 Rise Set
Actual Time 7:02 AM CST 4:58 PM CST
Civil Twilight 6:32 AM CST 5:27 PM CST
Nautical Twilight 5:59 AM CST 6:01 PM CST
Astronomical Twilight 5:26 AM CST 6:33 PM CST
Moon 6:54 PM CST (1/28) 7:25 AM CST (1/28)
Length of Visible Light 10h 55m
Length of Day
9h 55m
Full, 98% of the Moon is Illuminated
Jan 28
Full
Feb 3
Last Quarter
Feb 10
New
Feb 17
First Quarter
Feb 25
Full

Hourly Weather History & Observations

Time (CST) Temp. Windchill Dew Point Humidity Pressure Visibility Wind Dir Wind Speed Gust Speed Precip Events Conditions
12:15 AM 34.0 °F 25.0 °F 33.4 °F 98% 29.97 in 1.2 mi South 12.7 mph 17.3 mph N/A   Overcast
12:35 AM 33.8 °F 27.0 °F 33.4 °F 99% 29.95 in 1.0 mi South 8.1 mph - N/A   Overcast
12:55 AM 34.7 °F 26.9 °F 34.2 °F 98% 29.96 in 0.8 mi South 10.4 mph - N/A   Overcast
1:15 AM 34.7 °F 28.8 °F 34.2 °F 98% 29.94 in 0.5 mi South 6.9 mph - N/A Fog Fog
1:35 AM 34.9 °F 29.9 °F 34.7 °F 99% 29.94 in 0.5 mi South 5.8 mph - N/A Fog Fog
1:55 AM 34.9 °F 29.9 °F 34.7 °F 99% 29.94 in 0.5 mi South 5.8 mph - N/A Fog Fog
2:15 AM 35.1 °F 31.0 °F 34.7 °F 99% 29.93 in 0.5 mi South 4.6 mph - N/A   Light Drizzle
2:35 AM 35.8 °F 30.1 °F 35.6 °F 99% 29.93 in 0.5 mi SSW 6.9 mph - N/A   Drizzle
2:55 AM 36.5 °F 29.7 °F 36.3 °F 99% 29.92 in 0.8 mi SSW 9.2 mph - N/A   Overcast
3:15 AM 37.4 °F 31.4 °F 37.0 °F 99% 29.91 in 0.8 mi SSW 8.1 mph - N/A   Overcast
3:35 AM 38.3 °F 31.4 °F 38.1 °F 99% 29.91 in 0.8 mi SSW 10.4 mph - N/A   Overcast
3:55 AM 38.8 °F 32.6 °F 38.5 °F 99% 29.90 in 0.8 mi SSW 9.2 mph - N/A   Overcast
4:15 AM 39.4 °F 33.8 °F 39.2 °F 99% 29.89 in 0.2 mi SSW 8.1 mph - N/A Fog Fog
4:35 AM 39.7 °F 32.7 °F 39.6 °F 99% 29.89 in 0.2 mi SSW 11.5 mph - N/A Fog Fog
4:55 AM 41.0 °F 34.7 °F 40.8 °F 99% 29.88 in 0.5 mi SSW 10.4 mph - N/A Fog Fog
5:15 AM 41.4 °F 35.2 °F 41.2 °F 99% 29.88 in 0.8 mi SW 10.4 mph - N/A Rain Rain
6:15 AM 42.8 °F 35.8 °F 42.8 °F 100% 29.87 in 1.8 mi SW 13.8 mph 17.3 mph 0.01 in   Drizzle
6:35 AM 43.0 °F 35.7 °F 42.8 °F 99% 29.87 in 1.8 mi SW 15.0 mph - 0.01 in   Drizzle
6:55 AM 43.3 °F 35.8 °F 43.2 °F 99% 29.87 in 2.0 mi SW 16.1 mph - 0.01 in   Light Drizzle
7:15 AM 43.7 °F 36.9 °F 43.7 °F 100% 29.87 in 1.8 mi SW 13.8 mph - N/A   Overcast
7:35 AM 44.1 °F 37.4 °F 44.1 °F 100% 29.88 in 2.0 mi SW 13.8 mph 23.0 mph N/A   Light Drizzle
7:55 AM 44.2 °F 37.6 °F 44.2 °F 100% 29.89 in 2.0 mi SW 13.8 mph - N/A Rain Light Rain
8:15 AM 44.6 °F 38.8 °F 44.6 °F 100% 29.89 in 2.0 mi SW 11.5 mph - N/A   Overcast
8:35 AM 45.1 °F 39.5 °F 45.1 °F 100% 29.89 in 2.0 mi SW 11.5 mph 17.3 mph N/A   Overcast
8:55 AM 45.1 °F 39.9 °F 45.1 °F 100% 29.90 in 1.5 mi SW 10.4 mph - N/A   Drizzle
9:15 AM 45.5 °F 40.8 °F 45.5 °F 100% 29.90 in 1.5 mi WSW 9.2 mph - N/A Rain Rain
9:35 AM 45.5 °F 41.3 °F 45.5 °F 100% 29.91 in 1.5 mi WSW 8.1 mph - N/A   Light Drizzle
9:55 AM 45.7 °F 41.0 °F 45.7 °F 100% 29.91 in 1.5 mi SW 9.2 mph - N/A   Unknown
10:15 AM 45.7 °F 41.5 °F 45.7 °F 100% 29.92 in 1.2 mi SW 8.1 mph - N/A   Light Drizzle
10:35 AM 46.2 °F 41.2 °F 46.2 °F 100% 29.93 in 1.2 mi WSW 10.4 mph - N/A   Overcast
10:55 AM 46.6 °F - 46.6 °F 100% 29.93 in 1.2 mi WSW 11.5 mph - N/A   Overcast
11:15 AM 46.9 °F - 46.9 °F 100% 29.93 in 1.2 mi WSW 9.2 mph - N/A   Overcast
11:35 AM 47.1 °F - 47.1 °F 100% 29.93 in 1.2 mi WSW 9.2 mph - N/A   Overcast
11:55 AM 47.1 °F - 47.1 °F 100% 29.92 in 0.8 mi WSW 6.9 mph - N/A   Overcast
12:15 PM 46.9 °F - 46.9 °F 100% 29.92 in 0.5 mi WSW 8.1 mph - N/A Fog Fog
12:35 PM 47.3 °F - 47.3 °F 100% 29.92 in 0.5 mi WSW 5.8 mph - N/A Fog Fog
12:55 PM 47.5 °F - 47.5 °F 100% 29.92 in 1.8 mi West 5.8 mph - N/A   Overcast
1:15 PM 47.5 °F - 47.5 °F 100% 29.91 in 2.0 mi West 6.9 mph - N/A   Overcast
1:35 PM 47.3 °F - 47.3 °F 100% 29.91 in 1.8 mi WSW 5.8 mph - N/A   Overcast
1:55 PM 47.3 °F - 47.3 °F 100% 29.92 in 1.5 mi NW 4.6 mph - N/A   Overcast
2:15 PM 44.8 °F 41.6 °F 44.8 °F 100% 29.92 in 0.5 mi NW 5.8 mph - N/A Fog Fog
2:35 PM 43.7 °F 40.3 °F 43.7 °F 100% 29.93 in 0.8 mi NNW 5.8 mph - N/A   Overcast
2:55 PM 43.2 °F 41.5 °F 43.2 °F 100% 29.94 in 1.2 mi NNW 3.5 mph - N/A   Overcast
3:15 PM 43.2 °F - 43.2 °F 100% 29.95 in 0.8 mi Calm Calm - N/A   Overcast
3:35 PM 42.4 °F 39.6 °F 42.4 °F 100% 29.95 in 0.8 mi NNW 4.6 mph - N/A   Overcast
3:55 PM 41.9 °F 38.2 °F 41.9 °F 100% 29.95 in 0.8 mi NNE 5.8 mph - N/A   Overcast
4:15 PM 41.2 °F 38.2 °F 41.2 °F 100% 29.95 in 1.5 mi NNE 4.6 mph - N/A   Overcast
4:35 PM 40.5 °F 36.5 °F 40.5 °F 100% 29.95 in 1.8 mi NE 5.8 mph - N/A   Overcast
4:55 PM 40.1 °F - 40.1 °F 100% 29.96 in 1.2 mi Calm Calm - N/A   Overcast
5:15 PM 39.6 °F - 39.6 °F 100% 29.96 in 1.2 mi Calm Calm - N/A   Overcast
5:35 PM 39.2 °F 37.0 °F 39.2 °F 100% 29.96 in 1.2 mi East 3.5 mph - N/A   Overcast
5:55 PM 38.3 °F 34.8 °F 38.3 °F 100% 29.97 in 0.5 mi ENE 4.6 mph - N/A Fog Fog
6:15 PM 38.5 °F 35.0 °F 38.5 °F 100% 29.97 in 1.2 mi ENE 4.6 mph - N/A   Overcast
6:35 PM 38.1 °F 35.7 °F 38.1 °F 100% 29.98 in 0.8 mi East 3.5 mph - N/A   Overcast
6:55 PM 37.8 °F 34.2 °F 37.8 °F 100% 29.97 in 0.5 mi ENE 4.6 mph - N/A Fog Fog
7:15 PM 37.8 °F 35.3 °F 37.8 °F 100% 29.98 in 0.8 mi East 3.5 mph - N/A   Overcast
7:35 PM 37.4 °F 34.9 °F 37.4 °F 100% 29.97 in 0.5 mi ENE 3.5 mph - N/A Fog Fog
7:55 PM 37.6 °F 33.1 °F 37.6 °F 100% 29.97 in 0.8 mi East 5.8 mph - N/A   Overcast
8:15 PM 37.4 °F 32.8 °F 37.4 °F 100% 29.97 in 0.8 mi East 5.8 mph - N/A   Overcast
8:35 PM 37.6 °F 33.1 °F 37.6 °F 100% 29.96 in 0.5 mi East 5.8 mph - N/A Fog Fog
8:55 PM 37.4 °F 32.1 °F 37.4 °F 100% 29.96 in 0.5 mi East 6.9 mph - N/A Fog Fog
9:15 PM 37.4 °F 32.8 °F 37.4 °F 100% 29.96 in 0.5 mi ESE 5.8 mph - N/A Fog Fog
9:35 PM 37.4 °F 32.1 °F 37.4 °F 100% 29.95 in 0.5 mi East 6.9 mph - N/A Fog Fog
9:55 PM 37.8 °F 35.3 °F 37.8 °F 100% 29.95 in 0.5 mi East 3.5 mph - N/A Fog Fog
10:15 PM 37.8 °F 32.5 °F 37.8 °F 100% 29.94 in 0.2 mi East 6.9 mph - N/A Fog Fog
10:35 PM 37.8 °F 32.5 °F 37.8 °F 100% 29.92 in 0.2 mi East 6.9 mph - N/A Fog Fog
10:55 PM 38.5 °F 32.7 °F 38.5 °F 100% 29.92 in 0.2 mi ESE 8.1 mph - N/A Fog Fog
11:15 PM 38.8 °F 34.6 °F 38.8 °F 100% 29.91 in 0.2 mi East 5.8 mph - N/A Fog Fog
11:35 PM 39.2 °F 34.2 °F 39.2 °F 100% 29.90 in 0.2 mi East 6.9 mph - N/A Fog Fog
11:55 PM 39.2 °F 35.0 °F 39.2 °F 100% 29.88 in 0.2 mi East 5.8 mph - N/A   Unknown